Temp
62 62 62 61 61 60 60 59 59 59 59 59 58 57 57 56 56 56 55 54 55 54 54 54 54 53 53 51 51 51 50 49 49 49 50 49 48 48 47 48 48 48 47 47 47 46 46 45 45 44 44 44 43 42 42 41 41 40 40 39 38 37 36 36 35 35 35 34 34
62 61 61 61 61 60 59 58 58 59 58 58 58 58 57 57 56 56 55 55 54 54 54 53 53 52 51 51 51 51 50 49 49 49 50 49 48 49 49 49 48 48 48 47 46 46 46 45 44 44 44 43 43 42 42 41 41 40 39 38 37 37 36 36 36 35 34 34 33
61 61 60 60 60 59 59 58 58 57 57 57 57 57 57 57 57 56 56 55 54 53 53 53 52 51 51 50 51 50 50 50 49 50 50 49 49 49 49 49 48 48 48 47 47 46 46 45 45 45 45 44 43 43 42 41 41 41 40 38 38 37 38 38 36 35 34 34 33
60 60 59 60 59 59 59 59 58 57 57 57 57 57 57 57 56 56 55 54 52 52 52 53 52 52 51 51 50 50 50 51 50 50 50 49 49 48 48 48 48 47 47 47 46 46 45 45 45 45 45 43 43 43 43 42 41 41 40 38 38 38 38 38 36 36 35 35 33
59 59 60 60 59 59 59 59 58 58 58 58 57 57 56 56 56 55 54 54 53 53 52 52 53 53 52 51 50 49 49 51 51 51 50 49 48 48 48 48 48 47 47 46 46 46 45 44 45 44 44 43 43 43 42 42 41 40 39 39 39 38 38 38 37 36 36 35 33
59 58 58 59 58 58 58 58 58 58 58 58 57 56 56 56 55 55 54 54 53 52 51 52 53 53 52 51 50 49 50 50 51 51 50 49 48 48 47 47 47 47 47 46 45 45 45 45 45 44 43 43 43 43 42 41 42 41 40 39 38 38 37 37 36 36 35 35 33
58 58 58 58 58 58 58 57 58 58 57 57 56 56 55 55 55 54 54 54 53 52 52 53 53 53 52 51 50 50 50 50 50 50 49 49 48 48 47 47 47 47 46 46 45 45 45 45 45 45 45 45 44 42 41 41 41 41 40 39 38 38 37 36 35 35 34 33 33
56 57 57 58 58 57 57 56 57 57 57 57 56 56 55 55 54 53 53 53 52 52 53 54 53 52 52 51 51 51 51 50 50 49 49 48 48 47 47 47 47 46 46 46 46 45 45 45 45 44 44 44 43 42 41 41 41 40 40 38 38 37 36 35 34 34 34 34 33
55 56 57 57 58 57 57 56 57 57 57 56 56 55 55 54 54 53 53 53 53 53 54 54 53 52 52 51 51 51 51 51 50 49 49 48 48 48 47 47 47 46 46 46 46 45 45 45 44 44 43 43 43 41 40 40 40 40 39 38 37 36 35 34 33 33 33 33 33
55 56 56 57 57 57 56 56 56 56 56 56 55 55 55 55 54 54 54 54 54 54 53 53 52 52 51 51 51 51 51 51 50 49 49 49 48 48 48 48 47 47 46 46 46 45 44 44 43 42 42 42 41 40 40 40 40 39 38 38 37 35 34 33 33 33 33 34 33
54 55 56 57 56 56 56 55 55 55 55 55 55 54 55 55 54 54 54 54 53 53 52 52 52 52 51 51 51 51 51 51 50 49 49 49 49 48 48 48 47 47 46 46 45 45 44 44 42 41 41 40 40 40 39 39 39 38 37 36 36 35 34 33 32 32 33 33 32
53 53 54 55 55 55 55 55 55 55 55 55 54 54 54 54 54 53 53 53 52 52 52 52 52 52 52 52 51 51 51 50 50 49 49 48 48 48 47 47 47 46 46 45 45 45 44 43 42 41 40 40 40 40 39 39 38 38 37 36 35 35 35 34 33 32 32 31 31
52 52 53 53 53 54 54 54 55 54 54 54 54 54 54 54 53 53 53 52 52 52 52 52 52 52 52 52 52 51 51 50 50 49 49 48 48 47 47 47 46 45 45 44 44 44 44 43 42 41 41 40 39 39 39 38 38 37 37 36 35 35 35 34 33 32 31 31 31
51 51 51 52 52 53 54 53 53 53 53 53 53 53 53 53 53 53 53 52 52 52 51 51 52 52 52 52 52 51 50 50 49 49 48 48 47 47 47 46 45 44 44 44 44 44 43 43 42 42 41 40 39 39 39 38 38 38 37 36 36 35 35 34 33 32 31 31 32
49 50 50 51 51 52 52 52 52 52 51 51 52 52 52 52 53 53 53 52 51 51 51 51 51 51 51 50 50 50 49 49 48 48 48 47 47 47 46 46 45 44 44 44 44 43 43 42 42 42 41 40 40 39 38 38 38 37 37 37 36 35 35 34 33 32 32 32 31
48 49 49 50 51 51 51 51 51 51 51 51 50 51 51 52 52 52 52 51 51 50 50 49 50 49 49 49 49 49 48 48 48 48 47 47 46 46 46 46 45 43 43 43 43 42 42 42 42 41 40 39 39 38 38 38 37 37 36 36 36 35 35 34 33 32 32 32 32
48 48 49 50 50 50 50 50 51 51 50 50 50 50 51 52 52 51 51 50 50 49 49 48 48 48 48 48 48 48 48 48 48 48 47 47 46 46 45 45 44 42 41 42 42 42 41 41 41 40 39 38 38 37 37 36 36 36 36 36 35 35 35 35 34 33 32 32 33
47 48 49 50 50 49 49 49 49 49 49 49 49 49 50 51 51 50 50 49 49 48 47 47 47 47 47 47 47 47 48 47 47 47 47 46 46 45 44 44 42 41 40 41 42 42 41 41 40 39 39 37 37 36 36 35 35 35 35 35 35 34 34 35 34 34 33 33 34
47 47 47 48 48 48 47 47 47 47 47 47 47 47 48 49 49 49 48 47 48 48 47 47 46 46 46 46 46 46 47 46 46 45 45 45 44 44 43 43 42 40 40 40 41 41 41 40 40 39 38 37 36 36 35 35 35 35 35 35 34 34 34 34 34 34 34 34 35
45 46 46 46 46 46 45 45 45 45 45 46 46 46 47 47 47 47 47 47 47 47 47 47 46 46 45 45 45 45 45 45 45 44 44 44 44 43 43 42 41 40 39 39 39 39 39 39 39 38 38 37 37 37 36 35 35 35 35 34 34 34 34 34 34 34 34 34 35
44 44 45 45 45 44 44 45 45 45 45 45 46 46 46 47 47 47 47 47 47 47 47 47 47 46 46 45 45 45 45 46 45 45 45 45 44 43 43 42 40 39 38 38 38 38 38 38 38 38 38 38 38 37 37 36 36 35 35 35 35 35 34 35 35 35 35 35 35
44 44 44 44 44 44 44 44 44 45 45 45 45 46 46 47 47 47 47 47 47 47 47 47 46 46 46 46 46 46 46 46 46 46 46 45 44 44 43 43 41 39 38 37 37 37 37 37 37 37 37 38 37 36 37 38 37 36 35 35 36 36 35 36 36 37 37 36 36
44 44 43 43 43 44 44 44 45 45 45 45 46 46 47 47 47 47 47 47 47 47 46 46 46 46 46 46 46 46 46 46 46 46 46 45 44 44 43 42 40 39 38 37 36 36 36 36 36 36 36 36 36 36 37 38 38 37 36 36 36 36 36 37 37 37 37 37 37
44 44 44 44 43 44 44 44 44 44 45 45 45 45 46 46 46 46 46 46 46 46 46 46 46 45 45 46 46 46 46 45 45 45 45 44 44 43 42 42 41 39 38 37 37 37 37 37 36 35 35 35 36 37 37 37 36 36 36 36 36 36 37 37 37 38 38 37 38
44 44 44 44 43 43 43 43 44 44 44 44 44 44 44 45 45 45 45 45 45 45 45 45 45 44 44 45 45 45 45 44 43 43 42 43 42 42 42 42 41 41 40 39 42 43 43 42 39 37 36 36 37 37 36 35 35 36 37 37 37 37 37 37 37 38 38 38 37
43 43 43 43 43 43 43 43 43 43 43 43 43 44 44 44 44 44 44 44 44 44 44 44 44 44 45 44 44 43 43 43 43 42 42 42 41 41 41 42 42 41 40 42 45 47 47 47 45 42 39 37 37 37 36 34 36 37 37 38 38 38 38 38 38 38 38 38 37
43 43 42 43 42 42 42 42 42 43 43 43 44 44 44 44 44 44 44 43 43 43 43 43 44 45 45 44 42 42 42 42 42 41 40 41 41 41 40 40 41 40 40 44 47 48 49 49 48 46 43 39 38 36 35 35 35 36 36 37 37 38 38 38 37 37 37 37 35
42 42 42 42 42 42 42 42 42 43 43 44 44 44 44 43 43 43 43 43 42 42 42 43 43 44 44 43 42 42 41 41 41 40 41 41 41 41 40 40 40 40 42 46 48 49 49 50 49 48 46 43 39 37 36 36 36 36 37 37 37 37 36 36 37 37 36 35 34
42 42 42 42 42 42 42 42 43 43 43 43 43 43 43 43 43 43 43 42 42 42 42 42 43 43 42 41 41 41 40 39 40 40 40 40 40 40 39 39 38 40 43 47 48 49 49 50 50 49 48 46 42 38 36 37 37 38 38 38 37 37 37 36 36 35 35 34 33
42 42 42 42 42 42 42 43 43 43 43 43 43 42 42 42 42 42 42 42 41 41 41 42 42 41 41 41 41 40 39 39 39 39 39 39 38 39 39 39 37 38 42 48 49 49 50 50 50 50 50 49 45 41 37 37 37 37 38 38 38 37 36 35 34 34 34 34 33
42 43 43 42 42 42 42 42 42 42 42 42 42 42 42 42 42 42 42 41 41 41 41 40 40 40 39 39 39 39 38 37 37 37 38 38 40 39 38 37 36 38 42 48 49 49 50 50 50 50 50 50 47 43 39 38 38 38 38 38 37 36 35 34 33 33 33 33 33
42 42 42 42 42 42 42 41 42 42 42 41 41 41 41 41 40 40 40 40 40 40 39 38 38 38 38 37 37 37 37 37 37 37 38 38 38 37 36 37 36 37 42 48 49 50 50 50 50 50 50 50 49 45 41 39 39 38 38 37 36 35 35 35 34 33 32 32 33
42 42 42 42 42 41 41 41 42 41 41 41 41 41 40 39 39 38 38 39 40 39 38 38 38 38 38 37 37 36 36 36 37 38 38 38 37 36 36 37 37 39 43 48 49 50 50 50 50 50 51 51 49 45 41 39 39 38 37 36 36 35 34 33 34 33 33 33 33
41 42 42 41 41 41 41 41 41 41 40 40 40 39 39 38 38 38 38 39 39 38 38 38 38 38 38 38 37 37 37 39 37 37 36 36 36 36 37 38 40 43 46 48 49 49 50 50 50 50 51 51 48 44 39 38 37 37 36 35 35 35 34 34 33 33 33 33 33
41 41 41 41 41 41 41 40 40 40 39 39 38 38 37 37 37 37 38 39 39 38 37 37 37 37 37 37 36 36 37 38 36 35 35 35 36 37 38 38 40 43 46 48 49 49 50 50 50 50 50 50 46 41 38 36 35 34 34 34 34 35 35 35 34 33 32 32 32
41 41 41 40 39 39 39 39 39 39 39 38 38 37 36 36 37 37 38 40 39 37 36 36 36 35 35 36 35 36 37 37 36 35 36 36 37 37 38 38 39 42 46 48 49 49 50 50 50 50 50 48 43 39 36 34 34 33 33 34 34 35 35 35 34 33 32 32 32
40 41 40 39 38 38 38 39 39 38 38 38 37 36 36 36 36 37 38 39 37 36 35 35 35 35 35 35 35 35 35 35 35 36 37 39 39 39 39 39 38 41 45 48 49 49 50 50 50 50 49 44 39 36 34 33 33 33 33 34 34 35 35 35 34 33 33 32 33
39 39 39 38 38 38 38 38 38 38 38 37 37 36 36 36 36 37 38 39 37 36 35 35 35 35 34 34 35 34 34 35 37 38 39 40 40 40 39 39 38 40 43 47 48 49 50 50 50 50 47 41 37 35 34 33 33 33 34 35 35 35 34 35 34 33 33 33 36
38 38 38 38 38 38 38 38 38 38 38 37 37 36 36 36 37 37 38 39 37 36 35 35 35 35 35 35 35 34 34 35 38 40 41 40 41 41 41 39 39 40 42 46 47 49 49 50 50 50 48 42 37 34 34 34 33 33 34 35 35 35 34 33 33 33 33 33 39
37 37 37 37 37 38 38 38 38 37 37 37 37 36 36 37 38 38 38 38 37 36 36 35 35 35 35 37 36 35 35 36 37 39 41 41 42 43 43 41 40 40 42 45 47 48 49 49 50 50 48 41 36 34 34 33 33 33 34 35 35 35 34 33 33 33 33 32 36
36 36 37 37 37 37 38 38 37 37 37 37 37 37 37 38 38 38 37 37 36 36 36 35 35 34 35 38 37 36 36 37 37 39 40 41 42 43 44 42 40 39 40 43 46 47 48 49 49 50 48 42 36 34 33 33 33 33 34 35 35 35 35 33 33 33 33 32 32
MSLP
1013.45 1013.61 1013.81 1013.97 1014.17 1014.37 1014.57 1014.73 1014.93 1015.09 1015.25 1015.49 1015.69 1015.97 1016.21 1016.45 1016.65 1016.89 1017.13 1017.33 1017.45 1017.57 1017.73 1017.85 1017.97 1018.17 1018.37 1018.53 1018.65 1018.81 1018.93 1019.13 1019.37 1019.53 1019.65 1019.85 1020.05 1020.21 1020.37 1020.49 1020.65 1020.77 1020.89 1021.05 1021.17 1021.33 1021.49 1021.65 1021.85 1022.05 1022.25 1022.37 1022.49 1022.57 1022.65 1022.73 1022.81 1022.97 1023.09 1023.25 1023.41 1023.53 1023.61 1023.73 1023.85 1023.97 1024.01 1024.09 1024.09
1013.37 1013.53 1013.69 1013.89 1014.09 1014.29 1014.53 1014.73 1014.89 1015.05 1015.21 1015.37 1015.57 1015.81 1016.09 1016.25 1016.53 1016.77 1017.01 1017.21 1017.33 1017.45 1017.65 1017.85 1017.97 1018.17 1018.37 1018.49 1018.57 1018.69 1018.85 1019.09 1019.25 1019.45 1019.65 1019.81 1019.97 1020.09 1020.25 1020.37 1020.53 1020.69 1020.81 1020.93 1021.09 1021.25 1021.45 1021.61 1021.81 1022.05 1022.25 1022.37 1022.49 1022.53 1022.61 1022.65 1022.77 1022.89 1023.05 1023.25 1023.33 1023.41 1023.53 1023.65 1023.77 1023.85 1023.93 1024.01 1024.09
1013.33 1013.49 1013.65 1013.85 1014.05 1014.25 1014.49 1014.69 1014.81 1015.01 1015.21 1015.37 1015.53 1015.73 1015.97 1016.17 1016.37 1016.61 1016.81 1017.05 1017.25 1017.41 1017.65 1017.81 1017.97 1018.13 1018.29 1018.45 1018.53 1018.65 1018.77 1018.93 1019.13 1019.37 1019.57 1019.73 1019.89 1020.01 1020.13 1020.33 1020.49 1020.65 1020.77 1020.89 1021.01 1021.17 1021.37 1021.53 1021.69 1021.89 1022.09 1022.29 1022.41 1022.53 1022.57 1022.65 1022.65 1022.81 1022.93 1023.13 1023.25 1023.33 1023.41 1023.57 1023.65 1023.77 1023.89 1023.97 1024.09
1013.25 1013.45 1013.65 1013.81 1013.97 1014.13 1014.33 1014.53 1014.73 1014.93 1015.09 1015.29 1015.49 1015.69 1015.93 1016.09 1016.29 1016.53 1016.73 1017.01 1017.25 1017.41 1017.57 1017.69 1017.89 1018.05 1018.25 1018.37 1018.53 1018.65 1018.73 1018.89 1019.09 1019.25 1019.45 1019.65 1019.81 1019.93 1020.05 1020.25 1020.41 1020.57 1020.69 1020.81 1020.93 1021.09 1021.29 1021.49 1021.65 1021.85 1022.05 1022.21 1022.33 1022.37 1022.49 1022.57 1022.65 1022.73 1022.89 1023.01 1023.09 1023.25 1023.37 1023.49 1023.57 1023.69 1023.81 1023.93 1023.97
1013.21 1013.33 1013.45 1013.61 1013.81 1013.97 1014.17 1014.37 1014.61 1014.81 1015.01 1015.25 1015.49 1015.69 1015.89 1016.09 1016.25 1016.45 1016.69 1016.97 1017.13 1017.29 1017.41 1017.57 1017.77 1017.97 1018.09 1018.29 1018.49 1018.61 1018.73 1018.85 1018.97 1019.13 1019.37 1019.57 1019.73 1019.89 1020.01 1020.13 1020.33 1020.49 1020.65 1020.81 1020.93 1021.09 1021.25 1021.45 1021.65 1021.81 1022.01 1022.17 1022.25 1022.33 1022.41 1022.53 1022.57 1022.77 1022.93 1023.01 1023.09 1023.17 1023.29 1023.45 1023.53 1023.65 1023.73 1023.81 1023.93
1013.09 1013.25 1013.37 1013.53 1013.69 1013.93 1014.09 1014.33 1014.53 1014.73 1014.93 1015.17 1015.41 1015.65 1015.81 1016.01 1016.17 1016.37 1016.61 1016.81 1017.01 1017.17 1017.37 1017.53 1017.69 1017.89 1018.09 1018.29 1018.41 1018.57 1018.73 1018.85 1018.93 1019.09 1019.33 1019.53 1019.65 1019.81 1019.97 1020.13 1020.25 1020.41 1020.57 1020.77 1020.89 1021.05 1021.21 1021.41 1021.65 1021.85 1022.01 1022.13 1022.25 1022.33 1022.37 1022.45 1022.57 1022.73 1022.85 1023.05 1023.09 1023.13 1023.25 1023.37 1023.49 1023.53 1023.65 1023.77 1023.85
1013.01 1013.17 1013.33 1013.45 1013.65 1013.85 1014.09 1014.25 1014.49 1014.69 1014.89 1015.09 1015.29 1015.49 1015.65 1015.81 1016.01 1016.21 1016.37 1016.57 1016.85 1017.09 1017.33 1017.45 1017.65 1017.81 1018.05 1018.25 1018.37 1018.53 1018.65 1018.81 1018.93 1019.09 1019.25 1019.41 1019.61 1019.77 1019.93 1020.09 1020.25 1020.41 1020.57 1020.73 1020.93 1021.09 1021.21 1021.37 1021.61 1021.81 1022.01 1022.13 1022.25 1022.37 1022.45 1022.49 1022.57 1022.73 1022.89 1022.97 1023.05 1023.09 1023.21 1023.33 1023.45 1023.53 1023.61 1023.69 1023.81
1012.93 1013.09 1013.25 1013.37 1013.57 1013.81 1014.01 1014.21 1014.41 1014.65 1014.81 1014.97 1015.13 1015.29 1015.45 1015.65 1015.85 1016.09 1016.29 1016.53 1016.81 1016.97 1017.17 1017.33 1017.49 1017.65 1017.81 1018.05 1018.25 1018.41 1018.57 1018.73 1018.93 1019.09 1019.25 1019.37 1019.53 1019.73 1019.89 1020.09 1020.25 1020.37 1020.53 1020.65 1020.85 1021.05 1021.21 1021.41 1021.61 1021.81 1021.97 1022.13 1022.25 1022.37 1022.45 1022.53 1022.61 1022.73 1022.85 1022.93 1022.97 1023.05 1023.17 1023.25 1023.37 1023.45 1023.53 1023.61 1023.73
1012.93 1013.05 1013.17 1013.37 1013.53 1013.73 1013.93 1014.09 1014.29 1014.49 1014.69 1014.89 1015.05 1015.17 1015.33 1015.53 1015.73 1015.97 1016.25 1016.45 1016.65 1016.81 1016.93 1017.13 1017.33 1017.53 1017.65 1017.89 1018.09 1018.25 1018.45 1018.65 1018.85 1019.05 1019.21 1019.33 1019.53 1019.69 1019.89 1020.05 1020.25 1020.37 1020.53 1020.65 1020.81 1020.97 1021.21 1021.45 1021.65 1021.81 1021.97 1022.13 1022.25 1022.37 1022.49 1022.53 1022.65 1022.73 1022.81 1022.85 1022.93 1023.05 1023.17 1023.25 1023.37 1023.41 1023.49 1023.53 1023.69
1012.93 1013.05 1013.21 1013.37 1013.53 1013.69 1013.85 1014.09 1014.25 1014.37 1014.61 1014.81 1014.97 1015.17 1015.33 1015.49 1015.65 1015.85 1016.05 1016.25 1016.45 1016.65 1016.85 1017.01 1017.25 1017.45 1017.65 1017.81 1018.01 1018.21 1018.37 1018.57 1018.81 1018.97 1019.17 1019.29 1019.41 1019.61 1019.81 1019.97 1020.09 1020.29 1020.49 1020.65 1020.81 1021.01 1021.25 1021.49 1021.69 1021.89 1022.05 1022.21 1022.29 1022.41 1022.53 1022.61 1022.65 1022.73 1022.81 1022.81 1022.85 1023.01 1023.17 1023.29 1023.37 1023.37 1023.41 1023.45 1023.61
1012.89 1013.05 1013.21 1013.37 1013.53 1013.73 1013.89 1014.09 1014.29 1014.45 1014.61 1014.81 1015.01 1015.17 1015.33 1015.49 1015.65 1015.77 1015.93 1016.13 1016.45 1016.65 1016.77 1016.93 1017.13 1017.37 1017.57 1017.77 1017.97 1018.13 1018.29 1018.49 1018.73 1018.93 1019.09 1019.25 1019.37 1019.49 1019.65 1019.81 1019.97 1020.17 1020.37 1020.57 1020.81 1021.01 1021.25 1021.49 1021.69 1021.93 1022.09 1022.25 1022.33 1022.45 1022.57 1022.65 1022.69 1022.81 1022.81 1022.81 1022.81 1022.97 1023.17 1023.25 1023.33 1023.37 1023.37 1023.41 1023.53
1012.89 1013.05 1013.17 1013.37 1013.53 1013.73 1013.93 1014.13 1014.33 1014.49 1014.65 1014.85 1015.01 1015.17 1015.33 1015.49 1015.65 1015.77 1015.97 1016.21 1016.41 1016.57 1016.69 1016.85 1017.05 1017.25 1017.41 1017.65 1017.81 1018.05 1018.25 1018.49 1018.73 1018.93 1019.09 1019.21 1019.33 1019.49 1019.65 1019.81 1019.97 1020.17 1020.37 1020.57 1020.77 1020.97 1021.25 1021.49 1021.69 1021.93 1022.09 1022.25 1022.33 1022.41 1022.57 1022.65 1022.73 1022.81 1022.81 1022.81 1022.85 1022.93 1023.09 1023.21 1023.25 1023.33 1023.37 1023.37 1023.49
1012.89 1013.09 1013.25 1013.37 1013.57 1013.77 1013.97 1014.17 1014.33 1014.53 1014.65 1014.85 1015.01 1015.17 1015.33 1015.45 1015.61 1015.77 1015.97 1016.13 1016.29 1016.49 1016.65 1016.81 1016.97 1017.13 1017.29 1017.49 1017.69 1017.93 1018.13 1018.37 1018.61 1018.81 1018.97 1019.09 1019.33 1019.49 1019.65 1019.85 1020.01 1020.21 1020.37 1020.61 1020.81 1020.97 1021.25 1021.45 1021.65 1021.85 1022.01 1022.17 1022.29 1022.41 1022.53 1022.65 1022.69 1022.73 1022.77 1022.81 1022.85 1022.93 1023.05 1023.09 1023.21 1023.25 1023.29 1023.37 1023.41
1012.93 1013.09 1013.25 1013.45 1013.61 1013.81 1013.97 1014.17 1014.37 1014.49 1014.65 1014.81 1014.97 1015.13 1015.29 1015.45 1015.61 1015.73 1015.89 1016.09 1016.25 1016.41 1016.65 1016.81 1016.93 1017.05 1017.17 1017.33 1017.53 1017.73 1017.97 1018.17 1018.41 1018.61 1018.81 1018.97 1019.17 1019.37 1019.57 1019.81 1019.97 1020.17 1020.37 1020.61 1020.81 1021.01 1021.25 1021.41 1021.61 1021.77 1021.89 1022.09 1022.21 1022.37 1022.49 1022.53 1022.61 1022.65 1022.65 1022.73 1022.81 1022.93 1022.97 1023.09 1023.09 1023.17 1023.25 1023.29 1023.37
1013.05 1013.13 1013.29 1013.45 1013.65 1013.81 1013.97 1014.17 1014.29 1014.45 1014.65 1014.81 1014.93 1015.09 1015.25 1015.41 1015.53 1015.65 1015.81 1016.01 1016.21 1016.37 1016.57 1016.77 1016.93 1017.05 1017.17 1017.29 1017.45 1017.65 1017.89 1018.09 1018.33 1018.53 1018.69 1018.89 1019.09 1019.25 1019.41 1019.61 1019.85 1020.05 1020.25 1020.53 1020.81 1020.97 1021.17 1021.37 1021.53 1021.65 1021.81 1021.97 1022.09 1022.25 1022.37 1022.41 1022.49 1022.53 1022.53 1022.61 1022.69 1022.77 1022.85 1022.97 1023.05 1023.09 1023.13 1023.21 1023.29
1013.09 1013.25 1013.33 1013.45 1013.65 1013.81 1013.97 1014.13 1014.25 1014.41 1014.61 1014.73 1014.89 1015.01 1015.17 1015.37 1015.53 1015.65 1015.85 1016.05 1016.25 1016.41 1016.65 1016.81 1016.93 1017.13 1017.33 1017.49 1017.61 1017.81 1018.01 1018.21 1018.37 1018.53 1018.73 1018.89 1019.09 1019.21 1019.33 1019.53 1019.73 1019.97 1020.21 1020.45 1020.73 1020.97 1021.17 1021.37 1021.53 1021.65 1021.77 1021.89 1022.01 1022.13 1022.25 1022.29 1022.37 1022.37 1022.45 1022.49 1022.57 1022.65 1022.73 1022.81 1022.93 1022.93 1022.97 1023.05 1023.13
1013.17 1013.25 1013.37 1013.49 1013.65 1013.81 1013.97 1014.09 1014.21 1014.37 1014.53 1014.65 1014.81 1014.97 1015.09 1015.25 1015.49 1015.65 1015.85 1016.05 1016.25 1016.49 1016.73 1016.89 1017.05 1017.25 1017.45 1017.65 1017.81 1017.97 1018.17 1018.37 1018.53 1018.65 1018.77 1018.93 1019.09 1019.25 1019.37 1019.53 1019.73 1019.93 1020.13 1020.41 1020.65 1020.93 1021.17 1021.33 1021.49 1021.61 1021.69 1021.81 1021.93 1022.01 1022.09 1022.17 1022.25 1022.25 1022.33 1022.37 1022.49 1022.53 1022.61 1022.65 1022.69 1022.77 1022.81 1022.93 1022.93
1013.25 1013.33 1013.41 1013.53 1013.65 1013.81 1013.93 1014.09 1014.21 1014.37 1014.53 1014.69 1014.85 1014.97 1015.13 1015.29 1015.53 1015.69 1015.89 1016.09 1016.25 1016.53 1016.81 1017.01 1017.21 1017.37 1017.57 1017.77 1017.97 1018.09 1018.25 1018.45 1018.65 1018.77 1018.89 1019.05 1019.21 1019.37 1019.49 1019.65 1019.81 1019.97 1020.17 1020.37 1020.61 1020.85 1021.05 1021.25 1021.37 1021.53 1021.65 1021.77 1021.85 1021.93 1021.97 1022.05 1022.09 1022.17 1022.25 1022.29 1022.37 1022.41 1022.49 1022.53 1022.53 1022.61 1022.65 1022.73 1022.73
1013.29 1013.37 1013.49 1013.61 1013.73 1013.85 1013.97 1014.13 1014.29 1014.49 1014.65 1014.81 1014.93 1015.09 1015.25 1015.41 1015.57 1015.81 1016.01 1016.21 1016.33 1016.53 1016.81 1017.09 1017.29 1017.53 1017.69 1017.89 1018.09 1018.25 1018.37 1018.57 1018.77 1018.93 1019.09 1019.29 1019.41 1019.57 1019.73 1019.85 1019.97 1020.09 1020.25 1020.37 1020.57 1020.77 1020.97 1021.13 1021.33 1021.49 1021.65 1021.73 1021.81 1021.89 1021.97 1021.97 1022.01 1022.09 1022.13 1022.21 1022.25 1022.33 1022.37 1022.37 1022.41 1022.45 1022.49 1022.53 1022.53
1013.41 1013.53 1013.61 1013.69 1013.81 1013.97 1014.09 1014.25 1014.37 1014.53 1014.73 1014.89 1015.09 1015.25 1015.37 1015.53 1015.69 1015.89 1016.09 1016.25 1016.37 1016.53 1016.69 1016.93 1017.21 1017.49 1017.69 1017.89 1018.09 1018.29 1018.49 1018.65 1018.81 1019.01 1019.25 1019.41 1019.61 1019.73 1019.85 1019.97 1020.05 1020.13 1020.25 1020.37 1020.53 1020.77 1020.93 1021.13 1021.29 1021.45 1021.57 1021.65 1021.77 1021.81 1021.85 1021.93 1021.97 1022.01 1022.09 1022.09 1022.17 1022.21 1022.25 1022.25 1022.29 1022.33 1022.37 1022.37 1022.41
1013.53 1013.61 1013.69 1013.81 1013.89 1014.05 1014.21 1014.29 1014.45 1014.57 1014.73 1014.93 1015.09 1015.25 1015.37 1015.57 1015.69 1015.81 1015.97 1016.13 1016.29 1016.49 1016.65 1016.81 1017.01 1017.25 1017.49 1017.69 1017.89 1018.05 1018.21 1018.37 1018.53 1018.73 1018.93 1019.21 1019.41 1019.57 1019.65 1019.77 1019.93 1020.05 1020.21 1020.37 1020.53 1020.73 1020.93 1021.09 1021.25 1021.37 1021.49 1021.57 1021.65 1021.69 1021.77 1021.81 1021.89 1021.97 1021.97 1022.05 1022.05 1022.05 1022.09 1022.13 1022.17 1022.21 1022.25 1022.25 1022.29
1013.53 1013.65 1013.73 1013.81 1013.97 1014.09 1014.21 1014.29 1014.45 1014.57 1014.73 1014.89 1015.01 1015.17 1015.33 1015.49 1015.65 1015.77 1015.89 1016.01 1016.21 1016.37 1016.53 1016.69 1016.81 1016.97 1017.17 1017.37 1017.53 1017.69 1017.85 1018.01 1018.17 1018.29 1018.41 1018.65 1018.89 1019.09 1019.29 1019.49 1019.73 1019.97 1020.13 1020.37 1020.53 1020.69 1020.89 1021.01 1021.13 1021.25 1021.37 1021.49 1021.53 1021.61 1021.65 1021.69 1021.77 1021.81 1021.89 1021.93 1021.97 1021.97 1021.97 1022.01 1022.05 1022.09 1022.09 1022.13 1022.17
1013.53 1013.65 1013.77 1013.85 1013.97 1014.09 1014.25 1014.37 1014.49 1014.61 1014.77 1014.93 1015.05 1015.17 1015.33 1015.49 1015.65 1015.77 1015.93 1016.09 1016.21 1016.37 1016.53 1016.65 1016.81 1016.93 1017.05 1017.21 1017.37 1017.53 1017.73 1017.93 1018.09 1018.13 1018.25 1018.37 1018.57 1018.81 1019.09 1019.37 1019.61 1019.85 1020.09 1020.29 1020.45 1020.65 1020.81 1020.93 1021.09 1021.17 1021.25 1021.37 1021.45 1021.53 1021.53 1021.57 1021.65 1021.73 1021.81 1021.85 1021.85 1021.89 1021.89 1021.93 1021.93 1021.97 1021.97 1022.01 1022.01
1013.49 1013.65 1013.77 1013.85 1014.01 1014.13 1014.29 1014.41 1014.57 1014.73 1014.85 1015.01 1015.13 1015.25 1015.37 1015.53 1015.69 1015.89 1016.05 1016.21 1016.29 1016.45 1016.57 1016.73 1016.89 1017.05 1017.17 1017.29 1017.41 1017.57 1017.77 1017.93 1018.13 1018.29 1018.41 1018.53 1018.65 1018.81 1019.09 1019.37 1019.57 1019.81 1019.97 1020.21 1020.37 1020.53 1020.69 1020.81 1020.97 1021.09 1021.17 1021.25 1021.37 1021.37 1021.45 1021.53 1021.57 1021.65 1021.73 1021.77 1021.81 1021.81 1021.81 1021.81 1021.85 1021.85 1021.89 1021.93 1021.93
1013.53 1013.65 1013.81 1013.97 1014.09 1014.25 1014.37 1014.53 1014.65 1014.81 1014.93 1015.09 1015.21 1015.37 1015.53 1015.65 1015.81 1016.01 1016.17 1016.29 1016.45 1016.53 1016.69 1016.85 1017.01 1017.17 1017.29 1017.41 1017.53 1017.65 1017.81 1017.97 1018.13 1018.37 1018.57 1018.73 1018.81 1018.97 1019.13 1019.37 1019.53 1019.73 1019.89 1020.05 1020.17 1020.25 1020.41 1020.57 1020.77 1020.93 1021.09 1021.17 1021.25 1021.29 1021.37 1021.41 1021.49 1021.53 1021.61 1021.65 1021.69 1021.73 1021.77 1021.77 1021.77 1021.81 1021.81 1021.81 1021.81
1013.57 1013.73 1013.89 1014.01 1014.17 1014.33 1014.49 1014.61 1014.77 1014.89 1015.05 1015.17 1015.33 1015.49 1015.61 1015.73 1015.89 1016.05 1016.21 1016.37 1016.49 1016.61 1016.77 1016.93 1017.09 1017.25 1017.37 1017.49 1017.57 1017.73 1017.89 1017.97 1018.13 1018.33 1018.53 1018.73 1018.89 1019.01 1019.13 1019.29 1019.45 1019.65 1019.81 1019.93 1019.97 1020.09 1020.25 1020.37 1020.53 1020.77 1020.93 1021.05 1021.09 1021.21 1021.33 1021.37 1021.41 1021.45 1021.49 1021.53 1021.57 1021.65 1021.65 1021.65 1021.65 1021.65 1021.65 1021.65 1021.65
1013.65 1013.81 1013.97 1014.09 1014.25 1014.41 1014.57 1014.69 1014.85 1014.97 1015.13 1015.29 1015.41 1015.53 1015.69 1015.81 1015.97 1016.09 1016.25 1016.37 1016.53 1016.65 1016.81 1016.93 1017.05 1017.17 1017.29 1017.49 1017.61 1017.77 1017.89 1018.01 1018.13 1018.29 1018.45 1018.61 1018.77 1018.93 1019.09 1019.25 1019.37 1019.57 1019.73 1019.81 1019.81 1019.97 1020.09 1020.21 1020.37 1020.53 1020.73 1020.93 1020.97 1021.09 1021.17 1021.25 1021.33 1021.37 1021.41 1021.49 1021.53 1021.53 1021.57 1021.57 1021.53 1021.53 1021.53 1021.53 1021.53
1013.77 1013.89 1014.05 1014.21 1014.37 1014.53 1014.65 1014.81 1014.93 1015.09 1015.25 1015.37 1015.45 1015.57 1015.73 1015.85 1016.01 1016.17 1016.29 1016.41 1016.57 1016.73 1016.85 1017.01 1017.05 1017.13 1017.29 1017.49 1017.61 1017.69 1017.81 1017.97 1018.09 1018.25 1018.41 1018.53 1018.65 1018.81 1018.97 1019.13 1019.25 1019.41 1019.57 1019.65 1019.69 1019.81 1019.93 1020.05 1020.17 1020.29 1020.49 1020.69 1020.85 1020.93 1021.05 1021.09 1021.17 1021.25 1021.33 1021.37 1021.41 1021.41 1021.45 1021.45 1021.45 1021.45 1021.45 1021.45 1021.45
1013.81 1013.97 1014.09 1014.33 1014.49 1014.61 1014.73 1014.89 1014.97 1015.09 1015.25 1015.37 1015.49 1015.61 1015.77 1015.97 1016.05 1016.21 1016.33 1016.45 1016.57 1016.73 1016.85 1016.97 1017.05 1017.13 1017.29 1017.45 1017.53 1017.65 1017.81 1017.97 1018.05 1018.25 1018.37 1018.53 1018.65 1018.81 1018.93 1019.09 1019.21 1019.33 1019.41 1019.53 1019.61 1019.69 1019.81 1019.93 1020.01 1020.09 1020.25 1020.45 1020.65 1020.77 1020.89 1020.97 1021.05 1021.09 1021.17 1021.21 1021.25 1021.25 1021.29 1021.33 1021.33 1021.33 1021.33 1021.33 1021.33
1013.85 1014.01 1014.21 1014.37 1014.53 1014.65 1014.81 1014.89 1014.93 1015.09 1015.25 1015.37 1015.53 1015.65 1015.81 1015.97 1016.09 1016.21 1016.33 1016.45 1016.57 1016.65 1016.77 1016.89 1017.01 1017.17 1017.33 1017.41 1017.49 1017.65 1017.81 1017.93 1018.01 1018.17 1018.33 1018.53 1018.65 1018.81 1018.89 1019.01 1019.13 1019.25 1019.33 1019.37 1019.45 1019.53 1019.65 1019.73 1019.81 1019.93 1020.01 1020.13 1020.37 1020.57 1020.73 1020.81 1020.93 1020.97 1021.01 1021.01 1021.05 1021.09 1021.13 1021.13 1021.17 1021.21 1021.17 1021.17 1021.21
1013.93 1014.09 1014.21 1014.37 1014.53 1014.65 1014.81 1014.89 1014.97 1015.09 1015.25 1015.37 1015.53 1015.69 1015.85 1015.97 1016.09 1016.21 1016.29 1016.41 1016.53 1016.65 1016.73 1016.89 1017.05 1017.17 1017.29 1017.37 1017.49 1017.65 1017.77 1017.93 1018.05 1018.17 1018.29 1018.37 1018.53 1018.65 1018.81 1018.97 1019.09 1019.21 1019.25 1019.25 1019.33 1019.41 1019.53 1019.57 1019.65 1019.77 1019.81 1019.93 1020.13 1020.33 1020.53 1020.65 1020.73 1020.81 1020.81 1020.81 1020.85 1020.89 1020.93 1020.97 1021.01 1021.01 1021.01 1021.05 1021.09
1013.93 1014.09 1014.25 1014.41 1014.53 1014.65 1014.81 1014.93 1015.01 1015.13 1015.25 1015.41 1015.53 1015.69 1015.81 1015.97 1016.09 1016.21 1016.29 1016.41 1016.53 1016.69 1016.85 1017.01 1017.09 1017.21 1017.33 1017.49 1017.57 1017.65 1017.77 1017.93 1018.05 1018.13 1018.21 1018.33 1018.49 1018.65 1018.81 1018.93 1019.09 1019.21 1019.25 1019.17 1019.25 1019.33 1019.37 1019.45 1019.53 1019.57 1019.65 1019.73 1019.85 1020.05 1020.25 1020.41 1020.53 1020.57 1020.61 1020.65 1020.65 1020.69 1020.73 1020.77 1020.77 1020.81 1020.81 1020.89 1020.93
1013.97 1014.09 1014.25 1014.37 1014.53 1014.65 1014.81 1014.93 1015.01 1015.13 1015.25 1015.41 1015.53 1015.69 1015.81 1015.97 1016.09 1016.25 1016.37 1016.45 1016.53 1016.69 1016.85 1016.93 1017.09 1017.21 1017.33 1017.49 1017.57 1017.65 1017.81 1017.89 1017.97 1018.05 1018.13 1018.29 1018.45 1018.61 1018.77 1018.93 1019.05 1019.13 1019.17 1019.09 1019.13 1019.21 1019.25 1019.29 1019.37 1019.41 1019.49 1019.53 1019.61 1019.81 1020.01 1020.17 1020.29 1020.37 1020.37 1020.45 1020.45 1020.45 1020.49 1020.53 1020.53 1020.53 1020.57 1020.65 1020.65
1013.97 1014.09 1014.25 1014.37 1014.53 1014.65 1014.81 1014.93 1015.01 1015.17 1015.29 1015.45 1015.57 1015.69 1015.81 1016.01 1016.13 1016.25 1016.37 1016.45 1016.57 1016.69 1016.81 1016.89 1016.97 1017.09 1017.21 1017.33 1017.49 1017.61 1017.73 1017.81 1017.97 1018.05 1018.17 1018.33 1018.49 1018.65 1018.77 1018.85 1018.93 1018.93 1018.97 1019.01 1019.05 1019.05 1019.09 1019.17 1019.21 1019.25 1019.33 1019.37 1019.49 1019.65 1019.85 1020.01 1020.09 1020.21 1020.25 1020.25 1020.25 1020.25 1020.29 1020.29 1020.33 1020.37 1020.37 1020.45 1020.49
1013.97 1014.13 1014.25 1014.41 1014.53 1014.65 1014.77 1014.93 1015.05 1015.21 1015.37 1015.53 1015.65 1015.81 1015.89 1015.97 1016.09 1016.21 1016.29 1016.37 1016.53 1016.69 1016.85 1016.97 1017.09 1017.17 1017.29 1017.41 1017.53 1017.61 1017.73 1017.85 1017.97 1018.09 1018.25 1018.37 1018.49 1018.57 1018.65 1018.73 1018.77 1018.81 1018.81 1018.85 1018.89 1018.93 1018.93 1019.05 1019.09 1019.13 1019.21 1019.25 1019.37 1019.57 1019.77 1019.89 1019.97 1020.05 1020.09 1020.13 1020.09 1020.09 1020.09 1020.09 1020.09 1020.13 1020.21 1020.25 1020.29
1013.97 1014.09 1014.25 1014.45 1014.57 1014.65 1014.81 1014.93 1015.09 1015.25 1015.41 1015.57 1015.69 1015.81 1015.97 1016.01 1016.09 1016.21 1016.29 1016.37 1016.57 1016.77 1016.93 1017.09 1017.21 1017.33 1017.45 1017.53 1017.65 1017.73 1017.77 1017.85 1018.01 1018.13 1018.25 1018.33 1018.41 1018.53 1018.57 1018.61 1018.65 1018.65 1018.69 1018.69 1018.77 1018.81 1018.85 1018.93 1018.97 1019.05 1019.13 1019.25 1019.37 1019.53 1019.65 1019.81 1019.89 1019.97 1019.97 1019.97 1019.97 1019.89 1019.85 1019.89 1019.97 1020.01 1020.09 1020.09 1020.13
1013.89 1014.05 1014.25 1014.45 1014.61 1014.73 1014.85 1014.97 1015.13 1015.33 1015.45 1015.57 1015.69 1015.81 1015.93 1016.05 1016.17 1016.25 1016.37 1016.45 1016.65 1016.81 1016.97 1017.09 1017.25 1017.37 1017.45 1017.53 1017.61 1017.69 1017.81 1017.85 1017.97 1018.09 1018.21 1018.25 1018.33 1018.37 1018.45 1018.53 1018.57 1018.61 1018.61 1018.61 1018.65 1018.73 1018.81 1018.85 1018.93 1018.97 1019.09 1019.25 1019.37 1019.53 1019.61 1019.69 1019.77 1019.81 1019.81 1019.81 1019.77 1019.69 1019.65 1019.73 1019.77 1019.81 1019.85 1019.93 1019.93
1013.93 1014.05 1014.21 1014.41 1014.61 1014.77 1014.89 1015.01 1015.17 1015.33 1015.45 1015.57 1015.65 1015.81 1015.89 1016.05 1016.17 1016.29 1016.37 1016.41 1016.61 1016.81 1017.01 1017.13 1017.25 1017.33 1017.37 1017.49 1017.61 1017.73 1017.81 1017.93 1017.97 1018.09 1018.17 1018.21 1018.25 1018.29 1018.37 1018.45 1018.53 1018.57 1018.61 1018.61 1018.65 1018.69 1018.77 1018.81 1018.85 1018.89 1018.97 1019.13 1019.29 1019.37 1019.49 1019.57 1019.65 1019.65 1019.65 1019.61 1019.57 1019.53 1019.53 1019.57 1019.61 1019.65 1019.69 1019.69 1019.65
1013.97 1014.05 1014.17 1014.37 1014.57 1014.73 1014.89 1015.05 1015.17 1015.29 1015.41 1015.53 1015.69 1015.81 1015.93 1016.05 1016.13 1016.25 1016.33 1016.37 1016.53 1016.77 1016.97 1017.09 1017.21 1017.29 1017.41 1017.53 1017.65 1017.81 1017.97 1017.97 1017.97 1018.01 1018.09 1018.13 1018.17 1018.21 1018.29 1018.41 1018.49 1018.57 1018.61 1018.65 1018.65 1018.69 1018.73 1018.77 1018.73 1018.73 1018.81 1018.93 1019.09 1019.21 1019.29 1019.37 1019.49 1019.49 1019.45 1019.45 1019.41 1019.41 1019.37 1019.41 1019.45 1019.53 1019.53 1019.49 1019.37
1013.97 1014.05 1014.21 1014.37 1014.53 1014.69 1014.85 1015.01 1015.13 1015.25 1015.37 1015.53 1015.65 1015.81 1015.93 1015.97 1016.09 1016.21 1016.29 1016.41 1016.57 1016.73 1016.93 1017.09 1017.25 1017.37 1017.49 1017.61 1017.73 1017.85 1017.97 1018.01 1018.05 1018.05 1018.05 1018.09 1018.13 1018.17 1018.25 1018.37 1018.45 1018.53 1018.57 1018.57 1018.61 1018.65 1018.65 1018.61 1018.61 1018.57 1018.65 1018.81 1018.93 1019.01 1019.09 1019.25 1019.29 1019.33 1019.33 1019.29 1019.29 1019.25 1019.25 1019.25 1019.29 1019.33 1019.33 1019.29 1019.21
1014.01 1014.09 1014.25 1014.37 1014.53 1014.65 1014.81 1014.97 1015.09 1015.25 1015.33 1015.45 1015.57 1015.73 1015.81 1015.93 1016.05 1016.21 1016.37 1016.53 1016.65 1016.77 1016.93 1017.09 1017.25 1017.37 1017.49 1017.57 1017.69 1017.81 1017.93 1018.01 1018.05 1018.05 1018.05 1018.09 1018.13 1018.17 1018.21 1018.33 1018.37 1018.45 1018.49 1018.49 1018.49 1018.53 1018.49 1018.49 1018.49 1018.45 1018.53 1018.65 1018.77 1018.85 1018.97 1019.09 1019.17 1019.21 1019.17 1019.09 1019.09 1019.09 1019.09 1019.09 1019.09 1019.13 1019.17 1019.13 1019.09
Wind_Speed
9 8 8 8 7 7 6 5 6 7 7 7 8 8 8 8 8 7 7 6 6 6 6 6 6 6 7 9 10 10 9 9 9 10 10 10 9 9 9 9 9 9 8 8 8 7 7 6 5 4 3 3 3 3 3 3 4 4 4 4 3 3 4 4 3 3 3 3 2
10 9 8 8 7 6 5 5 6 6 6 6 7 8 8 8 8 8 7 7 6 6 6 5 6 6 8 9 10 10 10 10 10 10 10 10 10 10 10 9 9 9 9 9 8 7 6 6 6 5 4 3 3 3 3 3 4 4 4 4 3 3 3 4 3 3 3 3 2
10 9 8 8 8 7 6 6 6 7 7 6 6 7 7 7 7 7 7 7 6 5 5 5 6 7 9 10 9 9 10 10 11 11 10 10 10 10 10 9 9 9 9 9 8 7 6 6 6 5 4 4 4 4 4 3 4 4 4 4 3 3 3 3 3 3 3 3 3
9 9 8 9 10 10 9 7 8 8 8 7 6 6 7 6 6 6 6 6 6 5 5 6 6 7 9 10 9 9 9 10 11 11 11 10 10 10 10 10 10 10 9 9 8 8 7 7 5 4 4 5 5 5 4 4 4 4 3 3 3 3 3 3 3 3 3 2 3
9 9 9 9 10 10 9 8 9 9 8 7 7 6 6 6 5 5 6 6 6 6 6 7 7 8 8 9 10 10 10 11 11 11 10 10 10 10 10 11 10 10 9 9 8 8 8 7 5 4 4 4 4 4 4 4 4 4 3 2 2 2 3 3 3 2 2 2 2
9 8 8 8 10 9 8 8 9 9 8 7 8 8 7 6 6 6 7 8 7 7 8 9 8 8 9 9 10 10 10 10 10 10 10 10 10 10 10 10 10 10 9 8 8 8 8 7 5 4 3 3 3 3 4 5 4 4 3 2 2 2 2 3 3 2 2 2 2
9 8 8 8 9 9 8 8 9 9 8 8 9 10 10 9 9 9 9 8 8 8 8 9 9 9 10 10 10 10 10 10 9 10 10 10 10 10 10 10 10 9 9 9 8 8 7 6 5 4 4 4 3 3 4 4 5 4 4 3 2 2 2 3 2 3 3 3 3
7 8 8 9 10 10 10 10 9 9 9 8 10 11 12 11 11 11 10 9 8 8 9 8 10 11 11 11 11 11 11 10 10 10 10 10 10 10 10 10 10 9 9 9 8 8 7 5 4 4 4 3 3 3 4 5 5 5 5 4 3 2 2 2 2 3 3 4 3
6 7 8 9 10 10 10 10 11 10 10 9 10 11 12 11 12 11 11 9 9 9 9 9 10 11 12 12 12 11 11 11 10 10 10 10 11 11 10 9 10 9 8 8 8 8 7 5 4 4 3 3 3 3 4 5 6 6 5 4 3 2 2 2 2 3 3 4 4
7 7 8 9 9 10 10 10 10 11 11 10 11 11 11 11 11 11 10 9 9 9 9 9 10 11 12 12 11 11 11 10 10 10 10 10 11 11 11 10 10 9 9 8 7 7 7 5 4 4 3 3 3 4 4 5 6 6 5 4 3 3 2 1 2 3 3 3 4
8 8 8 9 9 9 9 9 9 9 9 10 10 10 10 11 10 10 9 8 9 9 10 9 11 12 12 11 11 10 10 9 9 10 10 10 11 11 11 10 10 10 9 8 7 7 6 5 5 5 4 3 3 4 4 5 6 6 5 3 3 3 3 2 2 2 3 3 3
8 8 8 8 9 9 9 9 8 8 8 9 9 9 9 9 9 9 9 8 10 10 10 10 11 12 12 10 11 10 10 10 10 10 10 11 11 10 10 10 10 9 9 8 7 6 6 5 6 5 5 4 3 3 4 5 5 5 5 4 3 3 3 3 2 2 3 3 3
8 8 8 8 9 9 9 9 8 7 8 8 9 9 8 8 9 9 10 10 10 10 9 10 11 12 11 11 11 11 11 11 11 11 11 11 10 10 10 9 9 9 8 8 7 6 6 6 7 7 6 5 4 4 5 5 6 6 5 5 4 4 4 4 3 3 3 3 3
7 8 8 8 9 9 9 8 7 7 7 8 8 8 8 8 8 9 10 10 10 9 9 9 10 10 10 11 12 12 12 11 12 12 11 11 11 11 10 10 9 9 8 8 7 7 7 7 7 7 7 7 6 5 5 6 6 6 6 6 5 5 5 5 4 3 3 3 3
7 8 8 9 9 8 8 8 7 7 7 8 8 8 8 7 8 8 9 9 9 9 8 8 8 8 9 10 10 11 11 11 11 11 11 11 11 11 11 10 10 10 9 8 7 7 7 7 7 7 7 7 7 6 6 6 6 6 6 6 6 6 6 5 5 4 4 4 3
7 8 8 9 9 8 8 7 6 7 7 8 8 8 8 7 8 8 8 8 8 7 7 8 7 7 7 8 8 9 9 9 10 10 11 11 11 11 11 11 10 10 9 9 8 7 6 6 7 7 7 8 7 7 7 7 6 6 6 6 7 6 6 6 6 5 5 5 5
7 8 8 9 9 9 8 8 7 7 7 8 8 8 8 8 7 7 8 8 7 7 7 7 6 6 6 6 6 7 8 8 8 9 9 10 10 10 10 10 10 9 9 9 9 8 7 6 6 7 7 7 7 7 7 7 6 6 6 6 6 6 6 7 6 6 6 6 6
7 8 8 9 9 9 9 8 7 7 8 8 8 7 7 7 7 7 7 7 7 7 8 7 6 6 6 6 5 6 6 7 7 7 7 7 8 8 8 8 8 8 9 9 9 9 8 8 7 6 6 6 6 6 6 6 6 6 6 6 6 6 6 6 6 6 6 6 7
7 7 8 8 9 8 8 8 8 7 7 7 7 6 6 7 7 7 7 6 7 9 9 8 7 6 6 7 6 5 5 5 6 6 6 6 6 6 6 7 7 8 8 9 9 9 8 8 7 7 6 6 5 5 5 5 6 6 6 6 6 6 6 6 6 6 6 6 7
7 7 7 7 7 7 7 7 7 6 6 6 7 7 7 7 7 8 8 8 9 9 10 10 9 9 8 8 8 7 6 6 7 8 7 7 7 7 7 8 8 8 8 8 8 8 8 7 7 7 7 6 6 5 5 5 5 5 5 5 6 6 6 6 6 6 6 6 6
6 6 6 6 6 6 6 6 6 7 7 7 8 8 8 8 9 9 10 10 10 11 11 11 12 12 11 11 11 11 9 8 10 10 11 10 10 10 10 10 9 9 8 8 8 8 8 7 7 7 7 7 7 6 6 5 5 5 5 5 5 5 6 6 6 6 6 6 6
5 5 5 5 6 6 6 6 7 7 8 8 9 9 9 9 9 10 10 11 11 11 12 12 13 13 13 13 13 12 11 10 11 12 13 13 13 12 11 10 10 9 8 8 8 8 8 8 7 7 7 7 7 6 6 6 6 6 5 5 5 5 5 5 5 6 6 6 6
5 4 4 5 5 6 7 7 8 8 8 8 9 9 9 9 9 9 10 10 10 11 11 11 11 12 12 12 12 12 11 10 11 11 11 11 11 11 10 9 9 9 9 8 8 8 8 7 7 7 7 7 7 7 7 6 6 6 6 6 6 6 6 6 6 6 6 6 6
6 5 5 5 6 7 7 7 8 8 8 8 8 8 8 9 9 9 9 9 9 10 9 9 9 9 10 10 11 11 11 10 10 9 8 8 9 9 9 8 8 8 8 7 8 8 8 7 6 6 6 6 6 6 6 6 6 6 6 6 6 6 6 6 6 6 6 6 6
7 6 6 6 7 7 7 7 8 8 8 7 8 8 8 8 8 8 9 9 9 9 9 8 8 8 8 9 9 9 9 10 9 9 8 7 8 8 8 8 7 7 7 7 11 13 12 10 8 6 6 6 6 6 6 6 6 6 6 6 6 6 6 6 6 6 6 7 6
7 7 7 7 7 7 7 7 7 7 7 7 7 7 7 7 8 8 8 8 8 8 8 8 8 8 8 8 8 8 8 8 9 9 9 9 9 8 8 7 7 6 6 9 13 16 16 15 12 9 7 5 5 5 5 5 6 6 6 6 6 6 6 7 7 7 6 6 6
7 7 7 7 7 7 7 7 7 7 7 7 7 7 7 8 8 8 8 8 8 8 8 7 8 8 8 7 8 8 8 7 8 9 9 10 10 10 9 7 7 6 7 11 15 17 17 17 15 13 10 6 6 6 5 5 5 6 6 6 6 6 6 7 7 7 7 6 6
7 7 7 7 7 7 7 7 7 7 7 8 8 7 7 8 8 8 8 8 8 7 7 6 7 7 6 6 7 8 9 8 8 8 9 9 10 10 9 8 7 7 9 13 16 17 17 17 16 15 13 9 6 6 6 5 5 5 5 5 6 6 7 7 7 7 7 7 6
7 7 7 8 7 7 7 7 7 8 8 8 8 7 7 8 8 8 8 8 8 7 7 6 6 5 5 6 7 8 8 9 8 8 8 9 9 9 8 8 7 8 11 15 16 16 17 17 16 16 15 12 7 5 5 5 5 5 5 5 6 6 7 7 7 7 7 7 7
7 8 8 8 8 7 7 7 8 8 7 7 7 8 8 8 8 8 9 9 9 8 7 6 6 6 7 8 8 8 8 8 8 8 8 9 9 8 8 8 7 8 11 16 16 16 16 16 16 16 16 15 9 6 5 5 5 5 5 5 6 7 7 7 7 7 7 7 7
8 8 8 8 8 8 7 7 7 7 7 7 7 8 8 8 9 9 9 8 7 7 6 6 7 7 7 7 7 7 7 7 7 7 8 9 10 9 8 7 7 8 11 15 16 16 16 16 16 16 16 16 11 7 5 5 6 6 6 6 7 7 7 7 7 8 8 8 7
8 8 8 8 8 8 7 7 7 7 7 8 8 8 8 8 8 7 7 7 7 6 6 6 7 7 7 7 7 7 8 8 8 8 9 9 9 8 7 7 7 8 11 15 15 16 16 16 16 16 16 16 12 8 7 7 7 6 7 7 8 8 8 7 7 8 8 8 8
8 8 8 8 8 8 7 7 7 7 8 8 8 8 8 8 6 6 6 6 6 7 7 7 8 9 8 8 8 8 8 8 9 9 9 8 8 7 7 7 6 8 11 15 15 15 15 15 15 15 16 16 12 8 7 7 6 6 6 7 8 8 8 8 8 8 8 8 8
8 8 8 8 8 8 7 7 7 8 8 8 8 8 8 7 6 6 6 6 6 6 6 7 8 8 8 8 8 8 8 8 8 8 8 8 8 7 7 6 6 8 12 15 15 15 15 15 15 15 15 16 10 7 6 6 6 6 6 7 7 8 8 9 9 9 8 8 7
8 8 8 8 8 8 8 7 7 8 8 8 7 7 7 7 7 7 6 6 5 5 5 5 5 5 6 5 6 7 7 8 7 7 7 7 7 8 8 7 6 9 13 15 15 15 15 15 15 15 15 13 8 5 4 5 5 6 7 7 8 8 9 9 8 8 7 7 7
8 8 8 8 7 7 8 8 8 8 8 8 7 7 6 6 6 6 6 6 5 5 5 5 5 5 5 5 5 5 6 8 7 7 7 7 8 8 8 8 7 9 12 15 15 15 15 15 15 15 13 10 5 3 3 4 4 6 7 7 8 9 9 8 7 7 6 6 7
8 8 8 8 7 8 8 8 8 8 8 8 7 7 6 6 5 5 5 6 5 5 5 5 5 6 6 6 5 5 5 6 7 7 8 8 8 8 8 8 7 8 10 13 13 14 14 14 14 13 11 6 3 3 3 3 4 5 6 7 8 8 8 7 7 6 6 6 7
7 8 8 8 8 8 8 8 8 8 8 7 6 6 6 6 5 5 5 6 5 6 6 6 5 6 6 6 6 5 5 6 7 7 8 8 8 8 8 7 6 7 8 10 11 12 12 13 13 12 10 4 3 3 4 4 4 5 6 7 7 7 7 6 5 5 6 7 9
6 7 8 8 8 8 8 8 8 8 8 7 6 5 5 5 5 5 5 6 5 6 6 6 6 5 5 6 5 5 5 6 7 8 8 8 8 8 8 7 6 5 6 8 10 11 12 12 13 12 10 6 4 4 4 4 4 5 6 6 6 6 6 5 5 5 6 7 11
5 6 7 8 8 8 8 8 8 7 7 6 6 6 6 6 5 5 5 5 5 5 6 6 6 5 5 6 6 5 5 6 6 7 8 8 7 8 8 6 5 5 6 8 10 11 12 13 13 13 11 6 4 4 4 4 4 5 6 6 6 6 6 5 5 5 5 7 9
4 5 6 7 7 8 8 8 7 6 6 6 6 6 6 6 5 4 4 4 4 5 5 5 6 6 6 6 6 6 6 6 6 6 6 7 7 7 7 6 5 5 5 7 10 12 13 13 13 13 11 7 4 4 3 3 4 5 6 7 6 6 5 5 5 5 5 6 6
Wind_Direction
178 177 175 173 174 175 174 172 170 169 170 170 169 169 170 172 174 174 175 176 178 178 177 176 174 170 167 168 168 165 162 159 159 160 160 159 158 157 156 154 153 152 150 150 148 147 146 146 144 145 150 154 156 157 155 149 144 141 140 141 145 144 142 141 147 151 153 155 154
179 177 174 171 170 169 167 166 168 170 171 172 169 169 171 173 174 174 175 178 179 177 173 172 170 168 168 171 169 166 162 160 160 160 160 160 160 158 156 154 154 154 153 151 151 151 150 149 148 150 154 156 156 159 160 157 145 140 140 146 149 146 142 144 153 155 155 153 149
179 176 173 170 171 171 170 171 171 171 170 170 169 169 171 174 174 174 175 177 174 170 168 169 169 169 169 171 170 167 164 162 161 161 161 161 161 159 157 155 154 155 155 154 154 154 154 153 154 156 160 163 163 163 164 163 149 143 145 154 151 145 143 149 154 153 148 146 147
179 177 174 174 174 174 174 173 171 170 170 167 165 166 169 172 172 170 169 167 164 166 169 170 169 170 171 171 170 168 166 164 162 161 161 162 162 160 158 155 155 156 156 155 154 154 154 154 156 160 164 165 166 166 166 162 150 144 145 153 145 144 146 151 153 149 145 145 150
182 180 178 176 175 174 173 171 169 169 168 164 163 165 168 168 166 163 162 164 169 172 171 167 167 169 171 170 168 167 165 165 164 163 162 162 163 162 160 157 157 157 157 155 155 154 154 154 156 162 167 167 169 170 167 157 149 144 140 140 139 141 144 148 149 146 139 135 137
184 182 179 174 172 171 170 168 168 167 167 163 164 165 167 168 165 165 167 171 171 168 165 163 165 167 168 169 168 166 166 167 166 164 163 163 163 162 160 160 159 158 157 156 154 153 153 154 158 164 168 169 170 168 162 154 150 146 143 140 141 137 137 145 147 139 131 125 123
181 179 174 170 169 168 168 166 166 166 165 163 166 169 170 168 167 168 169 168 164 162 163 166 167 168 168 169 169 169 168 168 167 165 164 163 163 162 162 161 159 158 157 156 154 154 155 155 159 167 172 173 171 168 162 157 154 151 150 153 150 135 131 144 143 136 131 132 134
176 174 171 167 167 167 165 164 164 165 166 169 172 172 171 168 167 166 165 162 162 165 169 170 170 169 169 170 171 171 170 168 168 167 165 163 162 162 162 160 159 159 158 157 156 156 156 156 161 167 172 174 172 168 164 160 157 156 156 157 151 132 126 138 139 138 139 142 146
173 170 167 165 166 166 165 164 165 167 169 172 173 172 170 167 166 164 164 165 167 169 170 170 170 169 168 169 170 171 170 169 168 167 166 163 162 162 162 161 161 161 160 158 157 155 155 155 161 167 171 174 172 167 163 160 158 158 157 154 146 131 117 117 131 138 142 145 157
171 167 164 163 165 164 163 163 166 167 168 170 171 169 167 166 166 166 166 167 165 167 169 169 168 168 168 169 170 170 170 169 167 167 166 165 165 164 164 165 164 163 161 159 156 153 152 153 159 165 170 171 166 163 161 159 157 158 157 152 143 136 130 121 132 139 145 150 164
166 163 162 163 163 160 159 160 164 166 166 167 166 166 166 166 166 166 164 160 161 166 169 167 166 167 168 169 170 170 169 168 167 167 167 168 168 167 167 167 165 162 160 158 154 152 152 154 159 164 167 169 161 160 161 160 158 157 155 150 143 144 150 157 150 149 150 154 165
159 158 158 158 157 156 157 159 162 164 164 163 163 164 165 166 165 163 159 157 162 166 168 166 166 167 168 169 169 168 167 167 167 168 168 169 169 168 166 165 162 160 157 153 152 152 155 157 161 165 168 169 165 164 165 165 161 159 157 154 150 157 167 180 173 162 152 147 160
153 152 152 152 152 154 155 158 160 161 162 162 162 163 164 164 162 159 159 161 165 166 166 166 168 168 169 169 170 169 169 168 169 169 169 169 168 166 164 162 159 156 154 152 153 155 158 161 164 167 170 172 172 174 173 170 167 165 164 163 166 174 184 193 187 170 152 146 165
146 148 149 150 151 153 155 157 157 159 160 161 162 162 161 160 161 161 162 164 165 165 164 167 170 172 172 171 171 170 170 170 169 169 169 168 167 165 163 161 159 156 155 154 155 157 160 165 168 170 171 173 177 180 180 177 174 172 171 172 178 186 193 198 191 177 164 167 187
143 146 148 149 151 153 155 156 156 157 158 160 161 160 158 159 162 163 164 165 164 163 163 165 171 173 173 171 170 169 168 168 168 168 167 167 166 165 164 162 159 157 155 155 156 159 163 168 171 173 174 176 180 182 183 182 180 178 178 180 185 189 194 197 190 183 179 184 197
143 146 148 150 153 155 156 157 157 158 159 161 160 158 158 160 162 162 162 162 160 159 160 164 166 166 166 166 165 164 163 165 166 167 167 167 167 166 164 161 159 156 154 153 156 161 166 170 174 175 176 178 181 183 185 184 182 182 183 186 189 191 194 195 191 188 188 190 200
146 149 152 154 156 158 159 160 159 160 161 161 160 159 160 160 160 160 159 157 153 152 154 157 156 154 154 157 157 158 160 163 166 167 168 167 166 165 162 159 156 153 151 152 158 164 170 175 177 177 178 179 181 183 184 184 183 185 187 190 192 194 196 195 192 191 191 195 205
150 153 156 157 159 161 161 161 160 160 159 158 158 157 157 155 154 153 151 147 144 143 143 142 140 139 141 143 146 150 154 157 161 162 161 160 158 156 154 151 150 150 152 156 163 168 173 177 178 179 179 180 182 182 182 182 183 185 188 191 193 196 197 196 194 193 195 201 210
154 156 158 159 160 160 159 157 155 153 152 151 149 147 146 145 144 142 139 138 139 138 137 134 130 128 129 131 132 134 137 139 139 136 135 136 138 141 144 147 151 154 158 162 167 170 174 176 178 179 180 181 182 182 181 180 182 185 187 190 193 196 197 198 197 197 199 204 213
155 157 159 159 157 154 152 149 146 143 142 140 138 137 137 138 137 138 139 142 142 140 139 137 136 135 134 134 134 135 135 134 132 131 131 133 140 148 155 160 162 164 165 166 168 170 173 176 178 180 181 182 184 184 184 182 183 186 189 192 195 198 200 200 201 202 205 209 216
156 158 158 155 150 148 146 143 139 137 136 137 138 139 140 140 142 145 147 148 147 146 146 147 147 148 148 147 148 149 150 149 147 147 149 154 161 167 170 170 168 167 166 166 167 169 173 176 179 182 184 186 187 187 187 187 189 193 196 200 203 205 206 206 207 210 214 218 221
159 158 154 149 146 143 141 138 137 137 139 142 143 145 146 147 150 151 151 150 151 152 154 155 156 157 157 157 157 157 158 158 159 161 163 166 170 172 172 169 165 164 164 165 168 171 175 179 182 184 186 189 190 190 191 192 196 201 206 212 216 218 218 218 219 221 224 226 229
158 155 151 147 142 139 138 137 138 140 143 145 147 149 150 151 152 151 151 152 154 156 158 159 160 161 161 161 159 159 160 162 166 169 170 170 168 167 165 161 160 162 165 169 171 173 176 181 184 187 187 188 191 194 196 198 201 205 211 219 224 228 230 230 230 231 232 233 234
154 152 149 143 140 138 139 139 141 143 145 148 149 150 150 150 149 149 151 154 156 158 159 160 161 161 161 160 159 160 161 164 167 169 169 165 160 156 155 155 160 165 170 173 176 177 179 181 185 187 189 189 192 196 199 200 202 206 212 219 225 232 236 238 236 236 236 237 238
151 148 145 141 141 140 141 142 145 147 149 150 149 148 148 148 149 150 153 156 158 158 158 157 158 158 159 160 161 161 162 163 163 162 159 156 153 152 153 157 164 170 175 178 184 186 186 186 186 186 188 190 193 197 199 201 202 206 211 217 223 230 237 242 241 240 238 237 238
148 146 145 144 142 142 143 147 148 148 147 146 146 147 149 150 151 152 155 157 159 159 158 156 157 159 161 160 160 160 160 160 160 158 157 156 155 156 160 164 170 174 179 185 190 192 193 194 192 190 188 189 193 196 199 204 206 209 213 218 222 228 236 243 245 244 242 240 240
147 147 146 144 143 144 147 149 147 145 145 147 149 152 153 153 153 155 157 159 159 158 157 157 159 161 162 159 158 158 159 159 159 159 159 159 160 163 166 170 174 176 183 190 193 195 197 199 198 196 193 189 192 195 198 205 208 212 215 220 225 230 236 243 247 250 250 248 245
150 149 146 142 144 147 148 146 146 148 151 154 156 156 154 153 155 158 160 160 158 157 157 160 162 162 160 159 161 161 160 159 159 161 162 163 165 168 171 173 175 179 186 192 195 198 200 202 202 201 197 193 194 197 200 204 209 213 218 224 229 233 238 242 247 251 253 253 250
151 148 146 146 149 150 150 150 153 156 158 158 156 155 154 155 158 160 162 160 160 161 162 164 163 160 160 164 165 162 160 159 160 161 163 165 169 171 173 174 175 182 188 193 196 199 202 204 205 205 203 198 196 196 200 206 211 217 222 227 230 233 236 240 244 247 250 251 252
151 149 149 152 153 154 156 159 160 160 158 157 155 155 156 159 162 164 165 165 166 167 167 163 161 163 166 167 164 162 161 162 162 162 163 167 171 175 177 176 176 183 190 194 197 201 204 206 208 209 209 205 199 195 197 205 211 217 223 228 229 231 233 236 239 242 245 247 250
152 152 153 154 156 159 162 162 159 158 157 156 156 158 161 164 168 170 170 169 169 167 162 157 160 164 166 165 163 163 163 163 162 164 167 171 174 176 176 175 176 184 192 195 199 202 206 208 211 213 214 212 205 198 195 203 209 215 221 225 227 228 229 232 235 238 240 242 245
154 154 154 156 159 162 162 160 158 157 157 157 159 162 165 169 171 171 170 167 164 160 158 159 162 164 164 163 164 165 165 165 167 171 173 174 174 174 173 175 178 187 194 198 201 205 208 211 214 216 218 217 212 203 195 200 206 213 220 224 226 227 227 230 233 235 236 237 238
154 155 157 159 161 162 161 159 158 158 158 160 162 165 168 170 169 167 165 164 161 161 163 166 167 167 167 168 168 168 169 170 173 174 174 172 170 169 172 177 182 191 198 201 205 208 211 214 217 219 221 221 219 207 194 196 203 211 219 225 228 229 229 230 233 235 236 235 235
156 157 159 161 161 161 160 159 158 158 159 161 165 167 167 166 166 166 166 166 165 166 168 170 170 170 171 171 170 171 173 175 174 173 170 168 166 169 174 183 191 197 201 204 208 212 215 218 221 223 224 225 223 211 194 195 204 212 220 227 231 233 233 233 234 235 237 236 237
158 159 160 161 160 160 159 158 157 157 159 162 166 167 167 166 167 168 168 167 164 164 166 169 169 168 169 169 170 171 172 174 173 171 169 166 167 173 181 190 198 202 204 207 211 214 218 221 224 225 227 227 225 212 195 197 207 215 222 229 235 238 239 238 238 237 237 237 238
160 160 161 160 159 158 157 157 157 158 160 164 167 169 169 170 170 168 166 162 158 157 160 162 162 163 166 170 173 175 176 174 172 171 171 170 173 180 188 197 202 206 207 209 212 216 220 223 226 228 229 229 225 210 200 204 214 222 227 233 239 242 244 244 243 242 240 238 237
161 160 159 158 157 157 157 156 157 159 164 168 169 169 169 168 168 166 163 158 155 157 160 161 163 168 172 174 176 179 178 173 170 171 175 178 182 187 194 201 205 209 210 212 215 218 222 226 229 231 231 230 222 212 212 216 224 230 234 239 244 247 247 248 247 246 244 241 240
160 158 156 155 156 156 156 156 158 163 168 170 170 168 167 164 164 165 165 162 159 161 164 165 170 175 176 174 174 174 173 172 172 175 180 186 190 193 197 203 207 211 214 215 219 223 227 230 233 233 232 223 213 211 215 221 230 235 240 244 249 250 251 251 249 248 246 244 247
157 154 153 153 154 155 156 158 162 166 168 169 167 165 164 164 165 167 168 166 163 163 166 169 173 175 173 167 165 166 171 177 180 183 186 192 195 196 198 201 206 211 214 217 222 227 230 233 236 236 234 226 213 209 213 219 230 237 243 247 252 255 255 253 249 247 248 247 252
146 147 148 149 152 154 157 160 165 167 166 164 163 164 165 167 166 166 165 163 161 162 165 168 170 167 165 162 162 166 174 184 189 192 193 196 198 199 199 200 204 208 212 216 222 227 231 234 237 239 238 231 214 207 211 216 230 240 246 249 252 255 257 254 248 246 247 249 253
130 135 141 145 150 153 157 160 164 164 163 161 163 165 165 164 159 157 157 156 156 159 162 164 162 161 161 164 165 170 177 187 195 199 199 196 198 200 201 200 201 205 211 216 222 227 231 235 239 241 242 237 219 207 208 213 231 243 248 251 250 253 256 257 253 249 248 248 250